Torna al catalogo

STARLINK-30533

AttivoComunicazioniVLEO
NORAD 58037·PAYLOAD·🇺🇸 United States

Lanciato Oct 9, 2023 da Vandenberg Space Force Base

Loading…

Prossimi Passaggi (prossime 24 ore)

TLE

AggiornatoSource: CelesTrak SupGP

Epoca: Sep 14, 2026, 21:44 UTC

1 58037C 23156K   26257.90604167 -.00005263  00000+0 -15547-3 0  2574
2 58037  53.1591   5.9873 0001160  76.1680 119.2079 15.34397822    11

Traccia STARLINK-30533 in tempo reale con AllMySat

Download on the App Store